Spencer, VA

11:13 AM EDT on August 28, 2016 (GMT -0400)
Blue Ridge

Weather History for KMTV - May, 2013

Change the Weather History Date:

Friday, May 17, 2013

  Actual Average (KGSO) Record (KGSO)
Temperature  
Mean Temperature 71 °F 67 °F  
Max Temperature 86 °F 78 °F 94 °F (1915)
Min Temperature 56 °F 56 °F 38 °F (1956)
Degree Days  
Heating Degree Days 0 2  
Month to date heating degree days 50  
Since 1 July heating degree days 3596  
Cooling Degree Days 6 4  
Month to date cooling degree days 47  
Year to date cooling degree days 85  
Growing Degree Days 21 (Base 50)    
Moisture  
Dew Point 61 °F    
Average Humidity 74    
Maximum Humidity 97    
Minimum Humidity 37    
Precipitation  
Precipitation 0.01 in 0.10 in 1.46 in (1946)
Month to date precipitation 1.78  
Year to date precipitation 15.10  
Sea Level Pressure  
Sea Level Pressure 30.09 in    
Wind  
Wind Speed 1 mph (North)    
Max Wind Speed 7 mph    
Max Gust Speed -    
Visibility 10 miles    
Events Rain , Thunderstorm    
T = Trace of Precipitation, MM = Missing Value Source: NWS Daily Summary

Daily Weather History Graph

Daily Weather History Graph

Search for Another Location

Airport or City:

Trip Planner

Search our weather history database for the weather conditions in past years. The results will help you decide how hot, cold, wet, or windy it might be!

Date:

Astronomy

May. 17, 2013 Rise Set
Actual Time 6:11 AM EDT 8:22 PM EDT
Civil Twilight 5:42 AM EDT 8:51 PM EDT
Nautical Twilight 5:06 AM EDT 9:26 PM EDT
Astronomical Twilight 4:28 AM EDT 10:05 PM EDT
Moon 12:37 PM EDT (5/17) 1:17 AM EDT (5/17)
Length of Visible Light 15h 09m
Length of Day
14h 11m
Waxing Crescent, 45% of the Moon is Illuminated
May 17
Waxing Crescent
May 18
First Quarter
May 25
Full
May 31
Last Quarter
Jun 8
New

Hourly Weather History & Observations

Time (EDT) Temp. Heat Index Dew Point Humidity Pressure Visibility Wind Dir Wind Speed Gust Speed Precip Events Conditions
12:15 AM 63.5 °F - 56.7 °F 78% 30.04 in 10.0 mi Calm Calm - N/A   Clear
12:35 AM 63.3 °F - 57.2 °F 80% 30.04 in 10.0 mi Calm Calm - N/A   Clear
12:55 AM 63.5 °F - 57.6 °F 81% 30.04 in 10.0 mi Calm Calm - N/A   Clear
1:15 AM 62.6 °F - 57.9 °F 85% 30.03 in 10.0 mi Calm Calm - N/A   Clear
1:35 AM 62.6 °F - 58.1 °F 85% 30.03 in 10.0 mi Calm Calm - N/A   Clear
1:55 AM 62.6 °F - 58.5 °F 86% 30.02 in 10.0 mi Calm Calm - N/A   Clear
2:15 AM 62.8 °F - 57.6 °F 83% 30.03 in 10.0 mi Calm Calm - N/A   Clear
2:35 AM 62.6 °F - 58.5 °F 86% 30.03 in 10.0 mi Calm Calm - N/A   Clear
2:55 AM 61.2 °F - 58.5 °F 91% 30.03 in 10.0 mi Calm Calm - N/A   Clear
3:15 AM 60.8 °F - 58.1 °F 91% 30.04 in 10.0 mi Calm Calm - N/A   Clear
3:35 AM 60.8 °F - 58.1 °F 91% 30.05 in 10.0 mi Calm Calm - N/A   Clear
3:55 AM 60.6 °F - 58.1 °F 91% 30.05 in 10.0 mi Calm Calm - N/A   Clear
4:15 AM 59.5 °F - 57.6 °F 93% 30.06 in 10.0 mi Calm Calm - N/A   Clear
4:35 AM 58.6 °F - 57.2 °F 95% 30.06 in 10.0 mi Calm Calm - N/A   Clear
4:55 AM 58.6 °F - 57.0 °F 94% 30.07 in 10.0 mi Calm Calm - N/A   Clear
5:15 AM 58.5 °F - 56.7 °F 94% 30.07 in 10.0 mi Calm Calm - N/A   Clear
5:35 AM 57.9 °F - 56.7 °F 96% 30.08 in 10.0 mi Calm Calm - N/A   Clear
5:55 AM 57.4 °F - 56.3 °F 96% 30.08 in 10.0 mi Calm Calm - N/A   Clear
6:15 AM 56.5 °F - 55.4 °F 96% 30.08 in 10.0 mi Calm Calm - N/A   Clear
6:35 AM 56.3 °F - 55.2 °F 96% 30.09 in 10.0 mi Calm Calm - N/A   Clear
6:55 AM 56.1 °F - 55.2 °F 97% 30.10 in 7.0 mi Calm Calm - N/A   Clear
7:15 AM 56.7 °F - 55.8 °F 97% 30.11 in 10.0 mi Calm Calm - N/A   Clear
7:35 AM 58.1 °F - 56.8 °F 96% 30.11 in 10.0 mi Calm Calm - N/A   Clear
8:15 AM 65.1 °F - 58.5 °F 79% 30.12 in 10.0 mi Calm Calm - N/A   Clear
8:35 AM 68.5 °F - 59.5 °F 73% 30.13 in 10.0 mi Calm Calm - N/A   Clear
8:55 AM 70.9 °F - 59.2 °F 66% 30.13 in 10.0 mi Calm Calm - N/A   Clear
9:15 AM 73.0 °F - 59.5 °F 62% 30.13 in 10.0 mi Calm Calm - N/A   Clear
9:35 AM 75.0 °F - 60.1 °F 60% 30.13 in 10.0 mi Calm Calm - N/A   Clear
9:55 AM 77.4 °F - 59.7 °F 54% 30.12 in 10.0 mi Calm Calm - N/A   Clear
10:15 AM 79.0 °F - 59.0 °F 50% 30.12 in 10.0 mi Calm Calm - N/A   Clear
10:35 AM 80.1 °F 80.7 °F 58.8 °F 48% 30.12 in 10.0 mi Calm Calm - N/A   Clear
10:55 AM 80.1 °F 80.7 °F 58.8 °F 48% 30.12 in 10.0 mi Calm Calm - N/A   Clear
11:15 AM 80.1 °F 80.7 °F 58.6 °F 48% 30.12 in 10.0 mi Calm Calm - N/A   Clear
11:35 AM 81.9 °F 82.1 °F 59.2 °F 46% 30.13 in 10.0 mi Calm Calm - N/A   Clear
11:55 AM 82.4 °F 82.6 °F 59.7 °F 46% 30.13 in 10.0 mi East 4.6 mph - N/A   Clear
12:15 PM 82.9 °F 83.2 °F 60.1 °F 46% 30.12 in 10.0 mi ESE 6.9 mph - N/A   Clear
12:35 PM 83.8 °F 83.8 °F 59.9 °F 44% 30.11 in 10.0 mi Calm Calm - N/A   Clear
12:55 PM 84.0 °F 83.8 °F 59.2 °F 43% 30.11 in 10.0 mi Calm Calm - N/A   Clear
1:15 PM 85.6 °F 84.7 °F 57.6 °F 38% 30.11 in 10.0 mi SSE 3.5 mph - N/A   Clear
1:35 PM 86.4 °F 85.2 °F 57.6 °F 37% 30.10 in 10.0 mi Calm Calm - N/A   Clear
1:55 PM 83.7 °F 82.8 °F 56.3 °F 39% 30.10 in 10.0 mi Calm Calm - N/A   Scattered Clouds
2:15 PM 82.6 °F 82.8 °F 59.9 °F 46% 30.10 in 10.0 mi ENE 3.5 mph - N/A   Overcast
2:35 PM 77.0 °F - 63.1 °F 62% 30.10 in 10.0 mi NNW 6.9 mph - N/A   Overcast
3:15 PM 80.2 °F 82.0 °F 64.6 °F 59% 30.10 in 10.0 mi North 6.9 mph - N/A   Scattered Clouds
3:35 PM 81.1 °F 82.8 °F 64.6 °F 57% 30.10 in 10.0 mi NE 3.5 mph - N/A   Scattered Clouds
3:55 PM 79.3 °F - 66.0 °F 64% 30.09 in 10.0 mi North 4.6 mph - N/A   Mostly Cloudy
4:15 PM 78.8 °F - 66.2 °F 65% 30.09 in 10.0 mi NNE 6.9 mph - N/A   Overcast
4:35 PM 80.1 °F 82.0 °F 65.3 °F 61% 30.09 in 10.0 mi North 5.8 mph - N/A   Scattered Clouds
4:55 PM 77.5 °F - 66.4 °F 68% 30.09 in 10.0 mi North 3.5 mph - N/A   Scattered Clouds
5:15 PM 76.6 °F - 66.4 °F 70% 30.08 in 10.0 mi North 3.5 mph - N/A   Scattered Clouds
5:35 PM 76.6 °F - 67.5 °F 73% 30.09 in 10.0 mi NNW 5.8 mph - N/A   Clear
5:55 PM 75.4 °F - 66.4 °F 73% 30.09 in 10.0 mi North 4.6 mph - N/A   Clear
6:15 PM 75.6 °F - 67.1 °F 75% 30.09 in 10.0 mi NNW 3.5 mph - N/A   Clear
6:35 PM 77.4 °F - 67.1 °F 71% 30.08 in 10.0 mi North 3.5 mph - N/A   Clear
6:55 PM 76.6 °F - 67.5 °F 73% 30.08 in 10.0 mi North 3.5 mph - N/A   Clear
7:15 PM 75.2 °F - 67.1 °F 76% 30.08 in 10.0 mi North 3.5 mph - N/A   Clear
7:35 PM 74.3 °F - 66.7 °F 77% 30.08 in 10.0 mi North 4.6 mph - N/A   Clear
7:55 PM 73.0 °F - 66.2 °F 79% 30.09 in 10.0 mi North 3.5 mph - N/A Thunderstorm Clear
8:15 PM 71.2 °F - 66.4 °F 85% 30.09 in 10.0 mi Calm Calm - N/A   Clear
8:35 PM 69.8 °F - 66.4 °F 89% 30.10 in 10.0 mi Calm Calm - N/A   Mostly Cloudy
8:55 PM 69.8 °F - 66.4 °F 89% 30.12 in 10.0 mi SSW 5.8 mph - N/A Thunderstorm Thunderstorm
9:15 PM 71.4 °F - 65.3 °F 81% 30.13 in 10.0 mi Calm Calm - N/A   Scattered Clouds
9:35 PM 71.2 °F - 61.0 °F 70% 30.13 in 10.0 mi Calm Calm - N/A Thunderstorm Mostly Cloudy
9:55 PM 70.7 °F - 61.2 °F 72% 30.15 in 10.0 mi Calm Calm - N/A   Overcast
10:15 PM 69.3 °F - 62.2 °F 78% 30.15 in 10.0 mi SW 3.5 mph - N/A Rain Light Rain
10:35 PM 67.1 °F - 62.8 °F 86% 30.14 in 10.0 mi Calm Calm - N/A Rain Light Rain
10:55 PM 66.2 °F - 63.5 °F 91% 30.14 in 10.0 mi Calm Calm - N/A Rain Light Rain
11:15 PM 66.2 °F - 64.4 °F 94% 30.14 in 10.0 mi Calm Calm - 0.01 in Rain Light Rain
11:35 PM 66.2 °F - 64.0 °F 93% 30.13 in 10.0 mi North 4.6 mph - 0.01 in Rain Light Rain
11:55 PM 66.2 °F - 64.4 °F 94% 30.13 in 7.0 mi Calm Calm - 0.01 in   Light Drizzle